Precipitable_Water
1.44 1.42 1.44 1.46 1.49 1.52 1.50 1.44 1.35 1.37 1.37 1.46 1.53 1.54 1.58 1.62 1.65 1.66 1.72 1.88 1.91 1.75 1.42 1.27 1.45 1.47 1.34 1.37 1.41 1.41 1.40 1.44 1.22 1.24 1.13 1.16 1.06 1.02 1.12 1.22 1.28 1.31 1.43
1.69 1.60 1.53 1.54 1.57 1.52 1.50 1.51 1.42 1.33 1.33 1.31 1.35 1.36 1.51 1.64 1.69 1.66 1.74 1.90 1.92 1.70 1.48 1.12 1.27 1.33 1.27 1.34 1.37 1.36 1.44 1.43 1.26 0.96 1.07 1.01 0.96 1.07 1.09 1.10 1.13 1.26 1.38
1.69 1.65 1.63 1.64 1.66 1.64 1.58 1.54 1.51 1.42 1.30 1.32 1.33 1.36 1.49 1.64 1.72 1.73 1.85 1.85 1.84 1.73 1.51 1.13 1.12 1.21 1.22 1.25 1.29 1.33 1.43 1.37 1.20 0.99 0.99 0.97 0.99 1.10 1.06 1.02 0.93 1.08 1.34
1.58 1.62 1.61 1.65 1.70 1.75 1.75 1.74 1.64 1.53 1.38 1.27 1.21 1.26 1.46 1.56 1.65 1.76 1.90 1.81 1.83 1.69 1.55 1.29 1.10 1.15 1.18 1.20 1.24 1.32 1.37 1.22 1.11 1.01 1.00 0.93 0.95 1.12 1.09 0.92 0.80 1.03 1.12
1.55 1.65 1.66 1.71 1.72 1.77 1.72 1.78 1.81 1.76 1.58 1.42 1.29 1.28 1.36 1.46 1.60 1.72 1.65 1.78 1.79 1.62 1.53 1.42 1.14 1.22 1.24 1.26 1.26 1.29 1.28 1.09 1.01 1.00 0.99 0.97 0.88 0.97 0.96 0.98 0.82 0.94 1.06
1.53 1.54 1.65 1.72 1.71 1.72 1.74 1.82 1.75 1.74 1.78 1.72 1.48 1.35 1.32 1.40 1.58 1.64 1.60 1.73 1.75 1.64 1.46 1.44 1.14 1.18 1.24 1.27 1.33 1.34 1.24 1.08 0.97 0.97 1.03 0.97 0.85 0.99 1.06 1.03 0.97 0.86 0.85
1.22 1.32 1.36 1.45 1.76 1.93 1.97 1.90 1.95 1.90 1.87 1.79 1.79 1.62 1.33 1.39 1.60 1.68 1.66 1.77 1.72 1.68 1.51 1.43 1.11 1.14 1.20 1.25 1.28 1.25 1.23 1.22 1.13 1.04 1.02 1.06 0.93 1.01 1.09 1.01 1.02 0.95 0.83
0.85 0.85 0.99 1.13 1.22 1.53 1.80 1.93 2.02 2.02 2.02 2.01 1.88 1.78 1.72 1.54 1.49 1.62 1.64 1.75 1.74 1.66 1.53 1.43 1.18 1.07 1.17 1.23 1.18 1.14 1.18 1.18 1.20 1.18 1.14 1.17 1.18 1.10 1.18 1.15 1.13 1.09 1.07
0.86 0.80 0.76 0.72 0.76 0.93 1.06 1.41 1.74 1.82 1.85 1.97 2.14 2.07 1.89 1.82 1.86 1.73 1.63 1.69 1.80 1.70 1.61 1.52 1.26 1.04 1.17 1.22 1.12 1.07 1.13 1.11 1.23 1.28 1.28 1.27 1.33 1.22 1.21 1.23 1.11 1.07 0.94
0.82 0.77 0.73 0.67 0.69 0.70 0.76 0.85 1.13 1.49 1.69 1.78 1.90 2.20 2.26 2.12 2.06 2.03 1.96 1.76 1.77 1.72 1.63 1.52 1.38 1.05 1.17 1.20 1.13 1.09 1.07 1.05 1.13 1.18 1.20 1.24 1.29 1.33 1.22 1.19 1.16 1.03 1.02
0.93 0.87 0.78 0.75 0.66 0.64 0.70 0.79 0.94 1.12 1.35 1.56 1.68 1.80 2.03 2.15 2.07 2.22 2.21 2.08 1.94 1.72 1.58 1.50 1.38 1.07 1.18 1.19 1.18 1.15 1.16 1.13 1.10 1.10 1.12 1.17 1.20 1.27 1.29 1.19 1.23 1.22 1.12
0.86 0.83 0.82 0.82 0.78 0.70 0.63 0.65 0.83 1.02 1.13 1.21 1.34 1.43 1.52 1.73 1.88 1.74 1.70 1.73 1.76 1.68 1.58 1.52 1.41 1.12 1.17 1.23 1.23 1.22 1.24 1.15 1.13 1.09 1.04 1.05 1.10 1.15 1.28 1.30 1.19 1.28 1.39
0.86 0.78 0.79 0.87 0.86 0.78 0.71 0.64 0.68 0.80 1.05 1.09 1.16 1.19 1.18 1.27 1.38 1.41 1.31 1.26 1.36 1.50 1.56 1.59 1.46 1.13 1.17 1.25 1.26 1.24 1.23 1.12 1.05 1.05 0.98 1.02 1.09 1.20 1.24 1.37 1.30 1.23 1.33
0.88 0.82 0.78 0.75 0.78 0.76 0.79 0.76 0.69 0.77 0.86 1.02 1.10 1.10 1.11 1.15 1.15 1.16 1.06 1.03 1.13 1.25 1.55 1.59 1.48 1.22 1.16 1.23 1.22 1.22 1.25 1.15 0.99 1.11 1.14 1.08 1.12 1.14 1.13 1.25 1.29 1.35 1.17
0.78 0.82 0.79 0.80 0.76 0.75 0.78 0.78 0.74 0.80 0.95 0.99 1.04 1.09 1.04 1.02 1.15 1.21 1.17 1.06 1.24 1.29 1.38 1.40 1.34 1.16 1.06 1.11 1.16 1.19 1.21 1.15 1.00 1.16 1.23 1.17 1.10 1.09 1.10 1.21 1.19 1.17 1.20
0.65 0.72 0.75 0.77 0.81 0.82 0.79 0.78 0.85 0.85 0.85 0.99 1.08 1.07 1.09 1.11 1.14 1.15 1.15 1.13 1.29 1.31 1.32 1.23 1.23 1.08 1.02 1.06 1.10 1.11 1.18 1.08 1.05 1.15 1.25 1.26 1.17 1.11 1.12 1.16 1.18 1.16 1.19
0.66 0.71 0.76 0.76 0.79 0.79 0.79 0.79 0.75 0.84 0.83 0.90 1.00 1.01 1.03 1.08 1.18 1.17 1.17 1.19 1.26 1.27 1.22 1.17 1.15 1.08 1.03 1.08 1.12 1.13 1.06 1.08 1.19 1.19 1.25 1.25 1.23 1.18 1.16 1.12 1.10 1.10 1.14
0.76 0.80 0.82 0.80 0.79 0.79 0.84 0.86 0.89 0.79 0.71 0.73 1.01 1.04 1.01 1.06 1.14 1.15 1.25 1.22 1.17 1.24 1.19 1.17 1.13 1.06 1.10 1.12 1.17 1.12 1.17 1.23 1.21 1.13 1.21 1.27 1.23 1.18 1.13 1.10 1.10 1.08 1.08
0.83 0.82 0.82 0.84 0.88 0.88 0.93 0.95 0.98 0.88 0.79 0.76 0.96 1.08 1.08 1.10 1.18 1.21 1.33 1.23 1.17 1.18 1.21 1.16 1.16 1.11 1.14 1.16 1.24 1.20 1.24 1.24 1.23 1.10 1.12 1.21 1.26 1.20 1.14 1.12 1.13 1.11 1.09
0.84 0.83 0.83 0.85 0.87 0.88 0.92 0.98 0.98 0.93 0.87 0.82 0.86 1.05 1.12 1.18 1.16 1.22 1.28 1.31 1.32 1.27 1.27 1.19 1.06 1.07 1.12 1.24 1.28 1.26 1.25 1.24 1.16 1.18 1.16 1.15 1.13 1.17 1.11 1.12 1.11 1.07 1.09
0.89 0.87 0.89 0.90 0.89 0.91 0.94 0.98 1.02 0.98 0.90 0.84 0.91 1.10 1.15 1.21 1.20 1.28 1.31 1.37 1.34 1.27 1.20 1.17 1.24 1.28 1.28 1.26 1.21 1.21 1.18 1.15 1.11 1.12 1.20 1.23 1.22 1.09 1.09 1.10 1.11 1.09 1.06
1.02 0.95 0.91 0.92 0.93 0.92 0.92 1.01 1.03 1.03 0.98 0.91 0.97 1.01 1.11 1.19 1.22 1.26 1.30 1.32 1.37 1.42 1.42 1.39 1.32 1.22 1.21 1.18 1.21 1.16 1.07 1.04 1.02 1.06 1.11 1.13 1.17 1.15 1.03 0.98 0.99 0.99 0.97
0.96 0.92 0.94 0.97 0.98 0.97 1.03 1.03 1.02 0.98 0.99 0.95 1.03 1.06 1.12 1.18 1.23 1.28 1.31 1.34 1.37 1.43 1.41 1.38 1.36 1.31 1.31 1.29 1.20 1.11 1.03 1.00 0.97 0.98 0.99 1.00 0.99 0.99 0.86 0.82 0.84 0.83 0.83
0.99 0.98 0.97 1.00 1.01 1.06 1.05 1.02 1.01 1.02 1.02 1.02 0.98 1.03 1.18 1.22 1.29 1.25 1.30 1.31 1.33 1.42 1.51 1.44 1.38 1.34 1.33 1.28 1.24 1.11 1.03 0.98 0.94 0.91 0.91 0.91 0.92 0.85 0.71 0.66 0.66 0.67 0.68
1.06 1.05 1.09 1.15 1.13 1.08 1.05 1.07 1.07 1.07 1.07 1.01 1.00 1.06 1.13 1.09 1.17 1.16 1.23 1.30 1.34 1.35 1.39 1.38 1.36 1.31 1.22 1.14 1.14 1.08 1.01 0.98 0.96 0.95 0.94 0.83 0.76 0.69 0.64 0.62 0.61 0.61 0.60
1.15 1.14 1.13 1.14 1.09 1.09 1.10 1.08 1.08 1.07 1.04 1.04 1.06 1.05 0.98 0.99 1.02 1.03 1.06 1.13 1.23 1.26 1.25 1.27 1.22 1.17 1.14 1.16 1.13 1.04 0.95 0.94 0.94 0.94 0.88 0.79 0.76 0.73 0.72 0.69 0.68 0.67 0.67
Wind_Speed
9 9 10 10 10 11 12 13 14 15 15 16 15 15 14 13 12 12 12 12 13 14 15 15 16 17 19 20 20 20 18 16 15 15 13 14 14 12 10 9 7 4 2
13 12 12 12 12 13 13 13 14 15 15 15 15 15 14 13 13 13 13 13 13 14 15 15 16 17 18 18 19 19 18 15 15 13 13 14 13 11 9 8 8 6 4
16 16 16 15 14 14 15 15 14 14 15 15 15 14 14 14 14 14 14 14 14 14 15 15 16 16 16 17 18 17 16 14 14 13 14 13 12 11 9 8 7 6 6
19 20 20 20 19 19 18 17 17 16 16 16 16 17 17 17 16 15 15 15 14 14 14 15 15 15 15 16 16 16 14 13 12 13 13 13 12 11 9 8 7 7 7
14 18 21 23 24 24 24 22 21 19 19 18 18 18 18 18 17 16 16 15 15 15 14 14 15 14 13 14 14 13 12 11 11 12 13 13 12 11 9 8 8 7 6
14 16 19 22 25 27 28 28 27 25 24 22 21 21 20 20 19 18 17 17 16 15 15 14 14 13 13 13 12 11 10 10 10 11 12 12 10 10 10 8 8 9 7
19 21 21 22 23 23 25 28 29 30 29 27 26 24 24 24 23 21 20 19 18 17 16 15 14 13 12 11 10 9 9 9 9 9 10 10 9 8 9 8 8 8 8
25 25 25 25 26 27 27 27 27 29 30 31 30 29 28 28 27 26 24 22 20 19 17 16 14 12 11 9 8 8 7 8 7 8 9 8 8 7 7 7 7 8 9
28 28 28 27 28 28 30 31 31 31 31 32 33 34 33 31 31 30 28 25 23 20 18 16 15 13 10 8 8 7 7 7 7 7 7 7 6 5 6 6 6 6 7
32 32 31 31 31 31 31 31 32 34 34 34 34 34 35 31 31 31 31 29 26 22 19 17 15 13 11 9 8 7 7 7 6 6 5 4 4 4 4 5 5 6 6
37 37 36 36 36 35 35 34 34 33 32 32 31 32 33 33 32 27 25 37 28 23 20 18 17 15 13 11 9 8 8 6 5 4 3 2 2 3 3 3 4 6 6
42 42 41 39 39 38 37 36 35 34 32 31 30 31 31 31 32 33 26 18 19 24 23 21 18 17 15 13 12 10 9 7 5 4 2 1 0 1 2 2 3 4 4
45 44 43 42 41 40 39 38 36 35 34 32 31 30 29 28 27 27 27 27 26 23 22 24 21 19 17 16 14 12 11 9 7 6 5 4 3 2 2 3 4 4 3
48 47 45 44 44 42 40 39 38 37 36 34 34 32 31 29 28 27 27 26 24 23 22 22 21 20 20 18 15 13 13 11 10 8 7 6 5 5 5 4 4 4 4
49 48 47 45 44 42 41 40 39 38 37 36 37 36 34 34 34 31 29 27 25 24 24 22 21 21 21 20 17 15 14 13 12 11 10 9 7 6 7 7 5 5 5
48 47 46 44 43 42 41 40 40 39 39 38 39 39 37 36 33 31 29 27 28 28 26 25 23 23 23 22 19 18 16 15 14 14 13 13 12 11 10 9 8 8 7
47 47 46 45 44 41 40 39 39 38 38 38 38 38 39 38 36 33 30 30 29 28 28 27 26 24 23 23 21 20 18 18 16 16 16 16 15 15 14 12 12 11 10
45 45 45 45 43 42 41 39 37 37 36 35 35 34 34 35 34 32 29 28 28 28 28 28 27 26 25 24 23 21 20 19 18 17 17 17 17 17 16 15 14 14 13
41 40 41 42 42 41 40 39 37 36 35 34 33 31 30 29 29 29 29 28 29 29 29 29 29 28 27 26 25 24 23 21 19 17 17 17 17 18 18 18 17 17 17
39 38 38 38 38 38 39 38 36 35 34 32 31 31 29 27 29 30 29 29 29 29 30 29 29 29 29 28 27 27 25 23 22 20 19 18 17 17 18 19 18 18 19
38 36 34 33 34 34 35 36 35 33 32 31 31 29 30 29 30 29 29 30 30 30 30 29 29 29 28 27 27 28 27 25 23 22 21 20 19 18 18 18 18 19 19
33 32 31 30 29 30 31 32 33 32 30 29 28 28 28 27 28 30 30 29 29 29 30 31 30 28 28 26 26 27 26 25 24 23 22 20 20 20 21 20 20 20 20
28 27 27 26 27 27 27 29 30 30 29 28 27 27 26 27 26 27 28 29 29 28 29 30 31 29 28 27 25 25 25 25 24 24 23 22 21 21 21 21 21 21 22
21 22 22 22 23 24 23 25 27 27 27 26 26 27 26 27 26 27 28 28 28 28 29 29 31 31 29 28 27 26 24 24 23 23 23 23 23 23 23 22 22 22 22
15 17 18 19 19 19 20 21 22 24 24 24 24 24 24 25 24 26 26 27 28 29 26 25 26 27 27 27 26 26 26 25 24 23 22 22 21 21 21 21 21 21 22
10 12 13 13 13 14 15 18 20 20 21 21 21 20 20 21 23 24 25 26 27 28 30 29 29 31 30 29 28 27 25 24 23 22 21 20 20 20 20 20 20 20 21
Wind_Direction
255 260 264 270 274 276 276 274 270 270 270 271 273 272 273 277 283 289 292 301 311 322 328 331 333 336 340 344 347 351 350 348 352 352 353 353 355 358 3 9 7 1 311
260 264 267 272 275 277 279 282 279 273 273 272 270 267 268 273 279 284 289 298 304 314 322 327 331 335 339 343 347 350 352 354 355 1 0 359 4 5 9 13 19 33 52
261 264 267 269 272 276 277 279 281 279 275 272 269 265 265 269 275 281 289 294 299 308 317 322 327 332 337 341 345 350 354 357 360 4 5 6 8 9 14 17 28 52 61
266 265 266 267 270 273 276 278 277 277 277 274 268 264 265 269 273 278 287 290 294 304 310 315 322 327 332 338 344 349 355 359 4 6 9 11 13 14 16 26 45 64 66
283 277 272 271 271 271 272 273 274 275 274 274 271 266 265 267 268 273 280 286 288 297 303 309 316 321 327 335 341 347 354 1 4 7 9 12 16 22 30 39 59 72 77
298 295 289 280 276 273 272 269 270 270 271 270 269 267 265 265 265 268 275 278 282 287 293 300 308 313 321 329 337 344 350 359 3 7 10 14 20 28 39 56 68 69 79
295 294 291 288 284 282 280 273 269 266 266 267 267 265 264 262 262 265 270 273 277 280 285 290 297 302 310 320 331 340 349 352 360 6 12 16 26 34 44 67 68 70 79
296 295 291 287 283 280 278 278 275 270 267 265 264 264 263 262 260 261 264 267 269 273 277 281 286 290 297 307 319 328 337 349 348 3 7 15 24 40 48 68 80 74 80
294 293 293 289 285 282 279 276 276 274 270 267 264 262 260 260 259 258 259 260 263 266 269 272 276 280 281 289 304 313 316 332 335 344 356 9 25 45 59 64 75 86 90
287 288 289 288 285 282 281 279 277 274 271 268 267 267 265 260 261 259 258 255 254 257 260 262 266 271 268 273 286 295 304 311 320 332 349 9 31 46 75 71 79 92 107
283 284 284 285 284 282 280 278 276 275 271 266 266 267 266 264 259 261 263 262 241 248 253 255 257 259 261 265 272 279 292 296 307 311 334 0 35 60 80 96 98 103 106
281 281 281 281 281 280 278 276 274 271 267 266 265 265 267 266 265 264 263 298 252 254 252 250 249 250 254 259 265 269 272 276 281 276 266 259 216 103 120 141 137 129 118
278 278 279 278 278 278 276 274 271 268 265 263 263 263 264 266 266 263 267 265 266 265 248 243 244 244 247 254 259 260 258 258 263 254 244 239 228 211 157 149 162 172 155
277 277 276 276 275 275 272 270 269 266 263 260 261 261 260 262 264 265 270 264 259 248 240 238 240 242 243 248 252 256 252 252 248 240 235 230 227 224 211 190 184 192 196
275 274 274 274 273 270 268 267 266 264 261 259 258 259 259 261 263 265 269 258 248 240 235 235 238 241 240 241 246 248 246 248 240 235 231 228 232 222 219 217 214 209 210
272 271 272 272 271 268 267 265 262 262 260 259 258 259 260 260 261 259 262 251 241 237 237 236 236 239 235 237 238 240 243 243 240 235 236 237 236 232 226 224 223 219 216
269 269 269 268 268 268 265 262 261 261 259 257 258 259 257 256 256 256 257 242 237 235 235 234 232 231 231 234 238 238 241 239 240 239 240 242 238 233 229 228 227 226 225
268 267 267 266 266 264 261 260 258 258 258 256 255 258 257 253 251 247 240 233 233 234 232 230 229 230 231 234 235 238 238 236 239 240 240 239 235 231 230 231 230 231 232
265 265 265 265 264 261 259 257 254 255 255 254 251 253 253 247 243 233 231 234 233 231 229 227 229 230 230 232 236 239 234 236 235 237 238 238 236 233 233 234 236 236 237
262 263 265 264 262 259 255 253 252 252 251 250 247 245 243 240 234 231 233 233 230 229 227 227 229 229 231 232 237 232 231 234 233 234 236 238 237 236 236 236 240 241 242
260 260 263 262 259 257 254 250 248 248 247 245 243 240 237 237 235 231 231 229 228 227 226 226 227 228 229 230 233 230 230 231 231 232 236 237 237 238 240 240 241 243 245
256 255 259 258 257 256 254 247 244 242 242 240 238 235 233 233 231 228 228 229 229 228 226 225 224 225 227 228 229 227 226 227 229 233 236 239 241 242 242 243 243 246 249
251 251 255 254 255 257 255 246 241 238 235 234 231 228 226 227 228 227 227 227 226 224 224 223 221 225 227 226 226 225 226 228 231 234 238 242 244 247 246 246 246 247 250
246 248 249 252 254 257 253 243 235 232 229 228 227 225 225 227 228 228 228 227 226 227 220 223 224 225 225 228 227 226 229 231 233 238 241 245 247 247 247 246 247 250 252
243 244 250 254 256 255 248 236 227 223 221 221 221 223 224 225 226 226 227 224 223 218 217 215 217 218 223 224 230 230 231 233 236 240 245 245 246 244 245 246 248 251 254
248 255 255 258 260 252 239 221 215 213 213 213 213 217 219 219 220 222 222 221 223 221 223 230 228 229 229 228 232 231 230 232 233 236 239 241 242 244 245 248 250 252 256